Regional Weather Roundup
Issued by NWS Green Bay, WI

Home | Current Version | Previous Version | Text Only | Print | Product List | Glossary On
Versions: 1 2 3 4 5 6 7 8 9 10 11 12 13 14 15 16 17 18 19 20 21 22 23 24 25 26 27 28 29 30 31 32 33 34 35 36 37 38 39 40 41 42 43 44 45 46 47 48 49 50
000
ASUS43 KGRB 152300
RWRGRB

NORTH-CENTRAL AND NORTHEAST WISCONSIN REGIONAL WEATHER ROUNDUP
NATIONAL WEATHER SERVICE GREEN BAY WI
500 PM CST SUN JAN 15 2017

WIZ005-009-010>012-018-019-160000-
NORTH CENTRAL WISCONSIN

CITY           SKY/WX    TMP DP  RH WIND       PRES   REMARKS
IRONWOOD       CLEAR     31  12  45 SW12      30.14F
MANITOWISH WTR NOT AVBL
ARBOR VITAE    NOT AVBL
EAGLE RIVER    NOT AVBL
LAND O LAKES   NOT AVBL
RHINELANDER    CLEAR     24  11  57 SW8       30.19F
PHILLIPS       CLEAR     24  10  55 SW6       30.20F
ANTIGO         NOT AVBL
TOMAHAWK       NOT AVBL
MERRILL        CLOUDY    20  10  63 S3          N/A
$$

WIZ013-073-160000-
NORTHEAST WISCONSIN

CITY           SKY/WX    TMP DP  RH WIND       PRES   REMARKS
IRON MOUNTAIN  CLEAR     28   9  44 SW6       30.17F
MARINETTE      NOT AVBL
$$

WIZ017-030-035>037-045-160000-
CENTRAL WISCONSIN

CITY           SKY/WX    TMP DP  RH WIND       PRES   REMARKS
MEDFORD        NOT AVBL
WAUSAU         CLOUDY    22  10  60 W3        30.24F
MOSINEE        NOT AVBL
MARSHFIELD     CLOUDY    20  10  65 CALM      30.24F
WISC RAPIDS    CLOUDY    20  15  81 CALM      30.28F
STEVENS POINT  NOT AVBL
WAUPACA        NOT AVBL
SHAWANO        NOT AVBL
CLINTONVILLE   CLOUDY    23  10  58 SW5       30.28F
WAUTOMA        CLOUDY    24  13  62 CALM      30.29F
$$

WIZ038-039-048-051-160000-
FOX VALLEY

CITY           SKY/WX    TMP DP  RH WIND       PRES   REMARKS
NWS GREEN BAY  CLOUDY    21  12  68 S7        30.30S
APPLETON       PTCLDY    19   9  63 S5        30.27S
OSHKOSH        CLOUDY    19   9  65 S3        30.31R
FOND DU LAC    CLOUDY    21  10  62 S6        30.30F
$$

WIZ022-050-052-160000-
EAST CENTRAL WISCONSIN

CITY           SKY/WX    TMP DP  RH WIND       PRES   REMARKS
EPHRAIM        NOT AVBL
WASHINGTON ISL NOT AVBL
STURGEON BAY   CLEAR     21  12  68 S8        30.28F
MANITOWOC      NOT AVBL
SHEBOYGAN      CLOUDY    21  12  68 SW3       30.31S
$$

LMZ563-521-522-541>543-160000-
LAKESHORE

STATION/POSITION TIME  TEMP    WIND        PRES    VSBY  WAVE
                       AIR SEA DIR/SP/G                  HT/PER
                 (UTC) (F)     (DEG/KT/KT) (MB)    (MI)  (FT/S)
SHEBOYGAN LKSHOR 2200   29      60/  2/  2 1027.4F
KEWAUNEE LKSHORE 2230   24     250/  3/  3 1025.6F
NORTHPORT PIER   2240   26     180/  1/  5 1024.4S
SISTER BAY LKSHO 2150   31     240/  7/  8   N/A
MENOMINEE LKSHOR 2230          190/  6/  9 1024.0F
$$




USA.gov is the U.S. government's official web portal to all federal, state and local government web resources and services.